Duncan, OK

7:05 PM CST on February 07, 2016 (GMT -0600)
Halliburton

Weather History for KDUC - October, 2012

Change the Weather History Date:

Friday, October 26, 2012

  Actual Average (KLAW) Record (KLAW)
Temperature  
Mean Temperature 45 °F -  
Max Temperature 53 °F 72 °F 93 °F (1950)
Min Temperature 37 °F 48 °F 27 °F (1957)
Degree Days  
Heating Degree Days 20    
Moisture  
Dew Point 32 °F    
Average Humidity 64    
Maximum Humidity 87    
Minimum Humidity 38    
Precipitation  
Precipitation 0.00 in - - ()
Sea Level Pressure  
Sea Level Pressure 30.31 in    
Wind  
Wind Speed 14 mph (NNE)    
Max Wind Speed 23 mph    
Max Gust Speed 32 mph    
Visibility 10 miles    
Events      
Averages and records for this station are not official NWS values.
T = Trace of Precipitation, MM = Missing Value Source: NWS Daily Summary

Daily Weather History Graph

Daily Weather History Graph

Search for Another Location

Airport or City:

Trip Planner

Search our weather history database for the weather conditions in past years. The results will help you decide how hot, cold, wet, or windy it might be!

Date:

Astronomy

Oct. 26, 2012 Rise Set
Actual Time 7:47 AM CDT 6:43 PM CDT
Civil Twilight 7:21 AM CDT 7:09 PM CDT
Nautical Twilight 6:51 AM CDT 7:39 PM CDT
Astronomical Twilight 6:22 AM CDT 8:08 PM CDT
Moon 4:55 PM CDT (10/26) 4:51 AM CDT (10/26)
Length of Visible Light 11h 48m
Length of Day
10h 56m
Waxing Gibbous, 91% of the Moon is Illuminated
Oct 26
Waxing Gibbous
Oct 29
Full
Nov 6
Last Quarter
Nov 13
New
Nov 20
First Quarter

Hourly Weather History & Observations

Time (CDT) Temp. Windchill Dew Point Humidity Pressure Visibility Wind Dir Wind Speed Gust Speed Precip Events Conditions
12:55 AM 44.6 °F 39.2 °F 37.4 °F 76% 30.19 in 10.0 mi NNE 10.4 mph 17.3 mph N/A   Clear
1:15 AM 44.6 °F 38.8 °F 37.4 °F 76% 30.20 in 10.0 mi NNE 11.5 mph - N/A   Clear
1:35 AM 44.6 °F 38.8 °F 37.4 °F 76% 30.20 in 10.0 mi NNE 11.5 mph 16.1 mph N/A   Clear
1:55 AM 44.6 °F 38.1 °F 37.4 °F 76% 30.20 in 10.0 mi NNE 13.8 mph 17.3 mph N/A   Clear
2:15 AM 44.6 °F 38.4 °F 37.4 °F 76% 30.20 in 10.0 mi NNE 12.7 mph 18.4 mph N/A   Clear
2:35 AM 44.6 °F 38.1 °F 37.4 °F 76% 30.21 in 10.0 mi NNE 13.8 mph 17.3 mph N/A   Clear
2:55 AM 44.6 °F 38.4 °F 35.6 °F 71% 30.21 in 10.0 mi NNE 12.7 mph 19.6 mph N/A   Clear
3:15 AM 44.6 °F 39.2 °F 35.6 °F 71% 30.21 in 10.0 mi NNE 10.4 mph 20.7 mph N/A   Clear
3:35 AM 44.6 °F 37.4 °F 35.6 °F 71% 30.21 in 10.0 mi NNE 16.1 mph 20.7 mph N/A   Clear
3:55 AM 42.8 °F 36.2 °F 35.6 °F 76% 30.21 in 10.0 mi NNE 12.7 mph 18.4 mph N/A   Clear
4:15 AM 42.8 °F 35.8 °F 35.6 °F 76% 30.21 in 10.0 mi NNE 13.8 mph 19.6 mph N/A   Clear
4:35 AM 42.8 °F 36.6 °F 35.6 °F 76% 30.21 in 10.0 mi NNE 11.5 mph 21.9 mph N/A   Clear
4:55 AM 42.8 °F 35.8 °F 35.6 °F 76% 30.22 in 10.0 mi NNE 13.8 mph 20.7 mph N/A   Clear
5:35 AM 41.0 °F 34.3 °F 35.6 °F 81% 30.24 in 10.0 mi North 11.5 mph 19.6 mph N/A   Clear
5:55 AM 41.0 °F 34.3 °F 35.6 °F 81% 30.24 in 10.0 mi North 11.5 mph 18.4 mph N/A   Clear
6:15 AM 41.0 °F 33.9 °F 35.6 °F 81% 30.25 in 10.0 mi North 12.7 mph - N/A   Clear
6:35 AM 39.2 °F 32.5 °F 35.6 °F 87% 30.27 in 10.0 mi North 10.4 mph - N/A   Clear
6:55 AM 39.2 °F 31.2 °F 35.6 °F 87% 30.27 in 10.0 mi North 13.8 mph - N/A   Clear
7:15 AM 37.4 °F 28.9 °F 33.8 °F 87% 30.27 in 10.0 mi North 13.8 mph - N/A   Clear
7:35 AM 37.4 °F 28.2 °F 33.8 °F 87% 30.28 in 10.0 mi NNE 16.1 mph - N/A   Clear
7:55 AM 37.4 °F 28.5 °F 33.8 °F 87% 30.29 in 10.0 mi North 15.0 mph 18.4 mph N/A   Clear
8:15 AM 37.4 °F 28.5 °F 33.8 °F 87% 30.30 in 10.0 mi North 15.0 mph 19.6 mph N/A   Clear
8:35 AM 37.4 °F 28.9 °F 33.8 °F 87% 30.32 in 10.0 mi North 13.8 mph 18.4 mph N/A   Clear
8:55 AM 39.2 °F 30.8 °F 33.8 °F 81% 30.34 in 10.0 mi North 15.0 mph 19.6 mph N/A   Clear
9:15 AM 39.2 °F 30.2 °F 33.8 °F 81% 30.34 in 10.0 mi NNE 17.3 mph 25.3 mph N/A   Clear
9:35 AM 41.0 °F 32.5 °F 33.8 °F 76% 30.36 in 10.0 mi NNE 17.3 mph 24.2 mph N/A   Clear
10:15 AM 41.0 °F 32.5 °F 33.8 °F 76% 30.37 in 10.0 mi NNE 17.3 mph 25.3 mph N/A   Clear
10:35 AM 41.0 °F 31.9 °F 33.8 °F 76% 30.38 in 10.0 mi North 19.6 mph 25.3 mph N/A   Scattered Clouds
10:55 AM 41.0 °F 31.4 °F 32.0 °F 70% 30.40 in 10.0 mi North 21.9 mph 31.1 mph N/A   Scattered Clouds
11:15 AM 41.0 °F 31.9 °F 32.0 °F 70% 30.40 in 10.0 mi NNE 19.6 mph 29.9 mph N/A   Mostly Cloudy
11:35 AM 42.8 °F 34.0 °F 32.0 °F 66% 30.40 in 10.0 mi North 20.7 mph 28.8 mph N/A   Scattered Clouds
11:55 AM 44.6 °F 35.9 °F 32.0 °F 61% 30.39 in 10.0 mi North 23.0 mph 32.2 mph N/A   Clear
12:15 PM 44.6 °F 36.1 °F 32.0 °F 61% 30.39 in 10.0 mi NNE 21.9 mph 32.2 mph N/A   Clear
12:35 PM 46.4 °F 39.0 °F 32.0 °F 57% 30.38 in 10.0 mi North 19.6 mph 27.6 mph N/A   Clear
12:55 PM 46.4 °F 39.2 °F 32.0 °F 57% 30.38 in 10.0 mi North 18.4 mph 27.6 mph N/A   Clear
1:15 PM 46.4 °F 39.8 °F 32.0 °F 57% 30.37 in 10.0 mi North 16.1 mph 27.6 mph N/A   Clear
1:35 PM 50.0 °F - 32.0 °F 50% 30.36 in 10.0 mi NNE 15.0 mph 25.3 mph N/A   Clear
1:55 PM 50.0 °F - 32.0 °F 50% 30.35 in 10.0 mi North 19.6 mph 26.5 mph N/A   Clear
2:15 PM 50.0 °F - 32.0 °F 50% 30.34 in 10.0 mi North 17.3 mph 25.3 mph N/A   Clear
2:35 PM 51.8 °F - 32.0 °F 47% 30.34 in 10.0 mi NNE 17.3 mph 25.3 mph N/A   Clear
2:55 PM 51.8 °F - 32.0 °F 47% 30.33 in 10.0 mi North 17.3 mph - N/A   Clear
3:15 PM 51.8 °F - 32.0 °F 47% 30.33 in 10.0 mi NNE 17.3 mph 26.5 mph N/A   Clear
3:35 PM 51.8 °F - 30.2 °F 44% 30.32 in 10.0 mi NNE 20.7 mph 25.3 mph N/A   Clear
3:55 PM 53.6 °F - 30.2 °F 41% 30.32 in 10.0 mi North 16.1 mph 24.2 mph N/A   Clear
4:15 PM 51.8 °F - 30.2 °F 44% 30.31 in 10.0 mi North 21.9 mph 27.6 mph N/A   Clear
4:35 PM 53.6 °F - 28.4 °F 38% 30.32 in 10.0 mi North 20.7 mph 26.5 mph N/A   Clear
5:15 PM 51.8 °F - 28.4 °F 41% 30.31 in 10.0 mi North 16.1 mph 23.0 mph N/A   Clear
5:35 PM 51.8 °F - 28.4 °F 41% 30.31 in 10.0 mi NNE 12.7 mph 21.9 mph N/A   Clear
5:55 PM 51.8 °F - 28.4 °F 41% 30.32 in 10.0 mi NNE 12.7 mph 17.3 mph N/A   Clear
6:15 PM 50.0 °F - 28.4 °F 43% 30.32 in 10.0 mi NNE 13.8 mph 25.3 mph N/A   Clear
6:35 PM 50.0 °F - 28.4 °F 43% 30.33 in 10.0 mi NNE 12.7 mph - N/A   Clear
6:55 PM 46.4 °F 41.9 °F 28.4 °F 50% 30.34 in 10.0 mi North 9.2 mph - N/A   Clear
7:15 PM 46.4 °F 40.4 °F 28.4 °F 50% 30.34 in 10.0 mi North 13.8 mph 17.3 mph N/A   Clear
7:35 PM 46.4 °F 41.5 °F 28.4 °F 50% 30.35 in 10.0 mi North 10.4 mph - N/A   Clear
7:55 PM 44.6 °F 39.7 °F 28.4 °F 53% 30.35 in 10.0 mi North 9.2 mph - N/A   Clear
8:15 PM 44.6 °F 38.8 °F 28.4 °F 53% 30.36 in 10.0 mi North 11.5 mph 18.4 mph N/A   Clear
8:35 PM 44.6 °F 39.7 °F 28.4 °F 53% 30.36 in 10.0 mi North 9.2 mph - N/A   Clear
8:55 PM 44.6 °F 40.2 °F 28.4 °F 53% 30.36 in 10.0 mi North 8.1 mph - N/A   Clear
9:15 PM 42.8 °F 38.0 °F 30.2 °F 61% 30.37 in 10.0 mi North 8.1 mph - N/A   Clear
9:35 PM 42.8 °F 38.0 °F 30.2 °F 61% 30.37 in 10.0 mi North 8.1 mph - N/A   Clear
9:55 PM 42.8 °F 36.6 °F 30.2 °F 61% 30.37 in 10.0 mi North 11.5 mph - N/A   Clear
10:35 PM 42.8 °F 37.5 °F 28.4 °F 57% 30.37 in 10.0 mi North 9.2 mph - N/A   Clear
10:55 PM 41.0 °F 35.8 °F 28.4 °F 61% 30.37 in 10.0 mi NNE 8.1 mph - N/A   Clear
11:15 PM 41.0 °F 36.4 °F 28.4 °F 61% 30.37 in 10.0 mi North 6.9 mph - N/A   Clear
11:35 PM 41.0 °F 35.8 °F 30.2 °F 65% 30.37 in 10.0 mi North 8.1 mph - N/A   Clear
11:55 PM 41.0 °F 35.2 °F 30.2 °F 65% 30.37 in 10.0 mi North 9.2 mph - N/A   Clear